Showing default

IRIDE-MS1-EAG2-12, 68461

Orbit data source: Space-Track

IRIDE-MS1-EAG2-12, 68461 is an Italian payload satellite in SSO that was launched on Mon, 30 Mar 2026 UTC via an FALCON 9 launch vehicle from the Air Force Western Test Range (AFWTR). Payload-class satellites include a variety of spacecraft equipped with specific instruments for various scientific and technological missions. These include communications satellites like Starlink; space stations such as the ISS; scientific satellites like the Hubble; Earth observation satellites from companies like Planet Labs, Umbra, and HawkEye 360; GPS; miniature CubeSats for education and research; and military/defense satellites.

Loading next visibility...
Identifier
68461, 2026-067AX
Orbit
SSO
Country
Flag of ITIT
Related business
Manufacturer
OHB-I
Mission
Operational spacecraft
Bus & Motor
EAGLET, Unknown motor
Mass
25 kg wet, 25 kg dry
Launch date (UTC)
2026-03-30 (3 months ago)
Launch vehicle
FALCON 9
Launch site
Air Force Western Test Range (AFWTR)
Object type
Payload
Rocket body
Debris
Shape & HBR
Unknown shape, 0.8 m
Radar Cross Section
Medium (>0.1 m² and <1 m²)

Expand to show TLE details & history
Last TLE update: 2 days ago

TLE from 2 days ago
0 IRIDE-MS1-EAG2-12
1 68461U 26067AX  26171.39089738  .00004759  00000-0  23591-3 0  9998
2 68461  97.4550 129.7716 0005752  68.8496 291.3352 15.18202217 12423
Epoch: 2026-06-20T09:22Z
TLE epoch observation values (Epoch: 2026-06-20T09:22:53.533Z)
Latitude
-0.00006°
Longitude
80.44236°
Altitude
512.92 km
Speed
7.608 km/s
True Right ascension
08h 39m 05s
True Declination
0° 00' 00"
Sunlit
Object was in daylight at epoch
Visualization orbit readout
Latitude
Unknown
Longitude
Unknown
Altitude
Unknown
Speed
Unknown
Apparent Right ascension
Unknown
Apparent Declination
Unknown
Sunlit
N/A
Visualization observer readout
Local Sidereal Time
15:13:16
Azimuth
Unknown
Elevation
Unknown
Doppler factor
Unknown
Orbital elements
Apogee altitude
512.205 km
Perigee altitude
504.283 km
Semi-major axis
6,886.381 km
Eccentricity
0.00058
Inclination
97.455°
RAAN
129.7716°
Arg. of periapsis
68.8496°
True anomaly
291.27379°
Mean anomaly
291.3352°
Eccentric anomaly
291.3045°
Mean motion
3.79801 °/min
Orbital period
94.79 mins
BSTAR
0.00023591
Loading maneuver chart data...
Computing Atmospheric mass density...
Loading historical data...
Loading historical data...
Loading historical data...
Loading historical data...
Loading historical data...
Loading historical data...
Loading historical data...

Documentation

Showing up to 5 results
|